Mojave, CA

12:15 PM PDT on April 25, 2018 (GMT -0700)
Mojave

Weather History for KMHV - February, 2014

Change the Weather History Date:

Tuesday, February 18, 2014

  Actual Average Record
Temperature  
Mean Temperature 56 °F -  
Max Temperature 71 °F 62 °F 90 °F (1981)
Min Temperature 41 °F 37 °F 23 °F (1975)
Degree Days  
Heating Degree Days 9    
Growing Degree Days 6 (Base 50)    
Moisture  
Dew Point 28 °F    
Average Humidity 36    
Maximum Humidity 66    
Minimum Humidity 12    
Precipitation  
Precipitation 0.00 in - - ()
Sea Level Pressure  
Sea Level Pressure 30.04 in    
Wind  
Wind Speed 11 mph (West)    
Max Wind Speed 28 mph    
Max Gust Speed 36 mph    
Visibility 10 miles    
Events      
Averages and records for this station are not official NWS values.
T = Trace of Precipitation, MM = Missing Value Source: NWS Daily Summary

Daily Weather History Graph

Daily Weather History Graph

Search for Another Location

Airport or City:

Astronomy

Feb. 18, 2014 Rise Set
Actual Time 6:35 AM PST 5:38 PM PST
Civil Twilight 6:09 AM PST 6:04 PM PST
Nautical Twilight 5:39 AM PST 6:33 PM PST
Astronomical Twilight 5:10 AM PST 7:03 PM PST
Moon 9:25 PM PST (2/18) 8:19 AM PST (2/18)
Length of Visible Light 11h 54m
Length of Day
11h 03m
Waning Gibbous, 86% of the Moon is Illuminated
Feb 18
Waning Gibbous
Feb 22
Last Quarter
Mar 1
New
Mar 8
First Quarter
Mar 16
Full

Hourly Weather History & Observations

Time (PST) Temp. Windchill Dew Point Humidity Pressure Visibility Wind Dir Wind Speed Gust Speed Precip Events Conditions
12:15 AM 53.6 °F - 32.0 °F 44% 30.01 in 10.0 mi West 27.6 mph 35.7 mph N/A   Clear
12:35 AM 53.6 °F - 32.0 °F 44% 30.02 in 10.0 mi West 23.0 mph 33.4 mph N/A   Clear
12:55 AM 53.6 °F - 32.0 °F 44% 30.02 in 10.0 mi NW 26.5 mph 31.1 mph N/A   Clear
1:15 AM 51.8 °F - 33.8 °F 50% 30.02 in 10.0 mi WNW 24.2 mph 29.9 mph N/A   Clear
1:35 AM 53.6 °F - 35.6 °F 51% 30.02 in 10.0 mi West 17.3 mph 23.0 mph N/A   Clear
1:55 AM 53.6 °F - 33.8 °F 47% 30.02 in 10.0 mi West 23.0 mph 32.2 mph N/A   Clear
2:15 AM 51.8 °F - 35.6 °F 54% 30.01 in 10.0 mi West 20.7 mph - N/A   Clear
2:35 AM 51.8 °F - 32.0 °F 47% 30.01 in 10.0 mi NNW 9.2 mph - N/A   Clear
2:55 AM 53.6 °F - 32.0 °F 44% 30.01 in 10.0 mi NNW 6.9 mph - N/A   Clear
3:15 AM 50.0 °F - 26.6 °F 40% 30.01 in 10.0 mi North 9.2 mph - N/A   Clear
3:35 AM 50.0 °F - 26.6 °F 40% 30.02 in 10.0 mi NNW 3.5 mph - N/A   Clear
3:55 AM 51.8 °F - 30.2 °F 44% 30.03 in 10.0 mi Calm Calm - N/A   Clear
4:15 AM 48.2 °F - 28.4 °F 46% 30.03 in 10.0 mi NNW 5.8 mph - N/A   Clear
4:35 AM 48.2 °F - 26.6 °F 43% 30.04 in 10.0 mi WNW 3.5 mph - N/A   Clear
4:55 AM 46.4 °F 43.5 °F 26.6 °F 46% 30.04 in 10.0 mi NE 5.8 mph - N/A   Clear
5:15 AM 44.6 °F 42.2 °F 26.6 °F 49% 30.04 in 10.0 mi NE 4.6 mph - N/A   Clear
5:35 AM 44.6 °F - 30.2 °F 57% 30.06 in 10.0 mi Calm Calm - N/A   Clear
5:55 AM 42.8 °F - 30.2 °F 61% 30.07 in 9.0 mi Calm Calm - N/A   Clear
6:15 AM 42.8 °F - 32.0 °F 66% 30.07 in 9.0 mi Calm Calm - N/A   Clear
6:35 AM 41.0 °F 39.0 °F 30.2 °F 65% 30.07 in 9.0 mi North 3.5 mph - N/A   Clear
6:55 AM 41.0 °F 37.1 °F 30.2 °F 65% 30.08 in 8.0 mi NW 5.8 mph - N/A   Clear
7:15 AM 42.8 °F - 32.0 °F 66% 30.09 in 9.0 mi Calm Calm - N/A   Clear
7:35 AM 46.4 °F - 32.0 °F 57% 30.09 in 10.0 mi Calm Calm - N/A   Clear
7:55 AM 50.0 °F - 32.0 °F 50% 30.10 in 7.0 mi Calm Calm - N/A   Clear
8:15 AM 50.0 °F - 33.8 °F 54% 30.10 in 10.0 mi Calm Calm - N/A   Clear
8:35 AM 51.8 °F - 33.8 °F 50% 30.10 in 10.0 mi Calm Calm - N/A   Clear
8:55 AM 53.6 °F - 33.8 °F 47% 30.11 in 10.0 mi Calm Calm - N/A   Clear
9:15 AM 55.4 °F - 33.8 °F 44% 30.11 in 10.0 mi Calm Calm - N/A   Clear
9:35 AM 55.4 °F - 33.8 °F 44% 30.11 in 10.0 mi South 3.5 mph - N/A   Clear
9:55 AM 57.2 °F - 32.0 °F 38% 30.12 in 10.0 mi Calm Calm - N/A   Clear
10:15 AM 59.0 °F - 32.0 °F 36% 30.12 in 10.0 mi Calm Calm - N/A   Clear
10:35 AM 60.8 °F - 32.0 °F 34% 30.11 in 10.0 mi ESE 3.5 mph - N/A   Clear
10:55 AM 60.8 °F - 30.2 °F 31% 30.11 in 10.0 mi Calm Calm - N/A   Clear
11:15 AM 62.6 °F - 28.4 °F 27% 30.11 in 10.0 mi Calm Calm - N/A   Clear
11:35 AM 64.4 °F - 28.4 °F 26% 30.11 in 10.0 mi Calm Calm - N/A   Clear
11:55 AM 64.4 °F - 26.6 °F 24% 30.10 in 10.0 mi Calm Calm - N/A   Clear
12:15 PM 66.2 °F - 24.8 °F 21% 30.09 in 10.0 mi Calm Calm - N/A   Partly Cloudy
12:35 PM 66.2 °F - 23.0 °F 19% 30.08 in 10.0 mi Calm Calm - N/A   Clear
12:55 PM 68.0 °F - 23.0 °F 18% 30.06 in 10.0 mi Calm Calm - N/A   Clear
1:15 PM 68.0 °F - 21.2 °F 17% 30.05 in 10.0 mi Calm Calm - N/A   Clear
1:35 PM 69.8 °F - 19.4 °F 15% 30.05 in 10.0 mi Calm Calm - N/A   Clear
1:55 PM 71.6 °F - 19.4 °F 14% 30.04 in 10.0 mi SW 4.6 mph - N/A   Clear
2:15 PM 69.8 °F - 19.4 °F 15% 30.03 in 10.0 mi Calm Calm - N/A   Clear
2:35 PM 71.6 °F - 17.6 °F 13% 30.02 in 10.0 mi East 4.6 mph - N/A   Clear
2:55 PM 71.6 °F - 17.6 °F 13% 30.02 in 10.0 mi Calm Calm - N/A   Clear
3:15 PM 71.6 °F - 17.6 °F 13% 30.01 in 10.0 mi East 6.9 mph - N/A   Clear
3:35 PM 71.6 °F - 15.8 °F 12% 30.01 in 10.0 mi ENE 5.8 mph - N/A   Clear
3:55 PM 71.6 °F - 15.8 °F 12% 30.02 in 10.0 mi Calm Calm - N/A   Clear
4:15 PM 71.6 °F - 15.8 °F 12% 30.02 in 10.0 mi Calm Calm - N/A   Clear
4:35 PM 68.0 °F - 32.0 °F 26% 30.02 in 10.0 mi West 10.4 mph - N/A   Clear
4:55 PM 66.2 °F - 30.2 °F 26% 30.02 in 10.0 mi WNW 6.9 mph - N/A   Clear
5:15 PM 64.4 °F - 32.0 °F 30% 30.01 in 10.0 mi WSW 6.9 mph - N/A   Clear
5:35 PM 64.4 °F - 32.0 °F 30% 30.01 in 10.0 mi West 4.6 mph - N/A   Clear
5:55 PM 62.6 °F - 32.0 °F 32% 30.01 in 10.0 mi WSW 5.8 mph - N/A   Clear
6:15 PM 60.8 °F - 30.2 °F 31% 30.02 in 10.0 mi West 5.8 mph - N/A   Clear
6:35 PM 59.0 °F - 32.0 °F 36% 30.01 in 10.0 mi WNW 9.2 mph - N/A   Clear
6:55 PM 59.0 °F - 32.0 °F 36% 30.03 in 10.0 mi West 10.4 mph - N/A   Clear
7:15 PM 57.2 °F - 35.6 °F 44% 30.02 in 10.0 mi WNW 21.9 mph 27.6 mph N/A   Clear
7:35 PM 57.2 °F - 35.6 °F 44% 30.02 in 10.0 mi West 17.3 mph - N/A   Clear
7:55 PM 57.2 °F - 32.0 °F 38% 30.02 in 10.0 mi West 13.8 mph - N/A   Clear
8:15 PM 57.2 °F - 32.0 °F 38% 30.02 in 10.0 mi WSW 5.8 mph - N/A   Unknown
8:35 PM 59.0 °F - 28.4 °F 31% 30.02 in 10.0 mi West 11.5 mph - N/A   Clear
8:55 PM 59.0 °F - 24.8 °F 27% 30.02 in 10.0 mi SW 8.1 mph - N/A   Clear
9:15 PM 57.2 °F - 28.4 °F 33% 30.02 in 10.0 mi WSW 12.7 mph - N/A   Clear
9:35 PM 59.0 °F - 24.8 °F 27% 30.02 in 10.0 mi West 10.4 mph 19.6 mph N/A   Clear
9:55 PM 57.2 °F - 23.0 °F 27% 30.01 in 10.0 mi WSW 9.2 mph - N/A   Clear
10:15 PM 59.0 °F - 19.4 °F 22% 30.01 in 10.0 mi WSW 11.5 mph 16.1 mph N/A   Clear
10:35 PM 59.0 °F - 23.0 °F 25% 30.01 in 10.0 mi WSW 16.1 mph 23.0 mph N/A   Clear
10:55 PM 57.2 °F - 24.8 °F 29% 30.00 in 10.0 mi WSW 13.8 mph 23.0 mph N/A   Clear
11:15 PM 57.2 °F - 23.0 °F 27% 30.00 in 10.0 mi WSW 11.5 mph - N/A   Clear
11:35 PM 57.2 °F - 24.8 °F 29% 30.00 in 10.0 mi WSW 16.1 mph 20.7 mph N/A   Clear
11:55 PM 55.4 °F - 24.8 °F 31% 29.99 in 10.0 mi WSW 15.0 mph - N/A   Clear